ONEWEB-0175

Last updated on April 25, 2021, 12:02 a.m. UTC

1 48073U 21025AH  21114.58336806 -.01140478  00000-0 -61200-1 0  9997
2 48073  87.4179 339.4092 0008674 156.3656  52.5086 15.17787885  1786
UTC
Height (km)
Latitude
Longitude
Inclination
Orbital Period
UTC large
Height (km)
Speed (km/s)
/
Latitude / Longitude
Inclination (degrees)
Orbital Period (minutes)
Azimuth
Elevation
Range (km)
Doppler Factor
iOS Compass Heading
iOS Angle

Next 30 passes for location: Hong Kong

Rise time Rise Azimuth (degrees) Set time Set Azimuth (degrees) Duration Max altitude (degrees)

No matching passes for this satellites